Wind_Speed
38 49 45 45 42 34 34 33 34 22 19 31 33 37 40 54 71 75 73 74 73 74 70 68 71 63 55 49 53 53 53 51 48 44 41 37 32 39 37 36 34 33 30 30
44 43 39 38 33 35 33 34 33 27 21 32 30 37 37 42 63 74 74 74 74 75 74 72 65 70 64 50 48 56 56 53 50 48 39 44 43 37 39 41 40 37 35 34
48 39 40 40 33 29 29 26 25 28 23 30 32 25 30 34 44 67 76 75 77 74 73 65 66 65 62 58 42 57 56 55 51 45 40 42 39 36 39 41 41 37 39 40
48 37 36 38 36 27 18 15 18 15 20 22 27 26 15 22 31 50 70 77 78 78 75 75 71 68 65 60 42 52 56 55 52 49 47 41 43 47 32 37 43 48 44 46
42 37 34 34 30 26 22 21 15 16 16 19 19 34 17 28 24 32 56 74 80 82 80 74 72 74 67 66 47 47 54 54 53 40 49 42 43 46 46 46 32 33 41 50
40 36 33 33 28 25 24 22 20 16 17 14 10 14 12 8 9 17 43 72 76 82 84 75 72 73 71 70 48 43 48 53 55 54 49 45 29 43 38 38 40 40 33 32
38 36 33 33 25 25 24 26 25 20 15 9 10 12 6 14 19 25 36 64 77 80 83 77 75 72 63 64 58 35 41 51 50 50 50 47 43 39 35 35 35 31 30 29
40 35 34 34 34 27 25 26 25 28 26 22 20 24 19 15 22 33 43 61 76 79 81 76 75 67 64 60 58 40 40 47 45 43 48 48 44 39 36 35 32 30 30 35
41 29 33 33 35 34 30 30 28 30 25 19 16 26 18 18 15 18 38 59 73 78 80 74 73 68 65 61 67 48 50 38 35 36 44 46 46 42 41 36 38 39 37 36
32 25 27 28 29 28 33 34 25 17 20 21 20 26 33 12 9 4 30 50 66 75 74 73 70 68 63 58 59 44 34 36 30 32 40 47 50 44 42 44 42 40 38 40
33 23 23 28 33 38 31 29 29 27 17 20 23 22 22 14 6 15 33 46 57 67 71 71 68 71 66 62 55 45 40 41 40 33 38 46 50 46 45 44 43 43 41 43
29 23 24 29 28 29 29 29 28 30 22 20 20 18 13 19 16 16 23 35 49 64 69 69 64 64 64 63 46 53 44 39 41 38 43 42 44 42 41 40 40 38 37 42
29 21 27 30 24 23 25 27 29 31 21 17 18 17 28 34 34 25 27 37 42 53 61 60 58 61 61 54 46 49 46 42 37 40 38 39 40 42 42 41 39 39 42 44
28 26 30 31 32 30 26 22 34 39 22 24 23 38 26 24 29 36 29 29 35 46 50 52 52 53 49 43 43 44 46 46 41 40 41 41 40 38 44 41 44 41 48 49
26 28 25 28 27 25 26 28 36 38 28 26 29 34 29 21 30 27 30 32 28 29 38 44 42 38 43 41 37 39 37 37 39 38 39 40 40 43 42 45 43 47 47 53
29 25 24 24 28 26 27 29 37 40 43 37 35 38 31 34 24 36 29 29 31 34 33 32 31 29 30 34 36 36 36 37 37 35 35 38 39 41 42 43 44 51 47 49
30 26 27 34 36 35 30 33 33 37 36 36 32 43 46 37 32 35 36 32 34 29 29 31 28 28 30 32 31 32 28 32 38 36 37 36 36 39 41 43 51 53 51 55
39 44 45 51 51 52 53 44 44 45 40 43 44 40 35 33 38 32 25 30 32 26 22 23 20 15 18 20 21 25 34 37 36 37 37 39 42 42 43 41 46 48 55 60
45 48 45 46 56 59 54 52 51 48 41 40 35 40 36 33 28 27 30 27 28 24 16 15 20 12 19 10 24 25 25 24 22 22 27 31 36 37 38 42 40 44 43 41
46 48 52 53 54 57 58 57 55 54 56 50 45 40 38 32 15 27 23 18 13 14 17 10 12 11 8 9 12 12 16 17 21 25 25 29 32 37 39 39 40 31 28 33
38 42 49 50 53 52 51 50 49 46 49 44 42 40 37 29 30 33 32 28 21 14 10 6 5 5 4 6 10 15 13 15 16 17 16 17 17 22 21 25 28 32 36 39
29 32 35 41 44 44 40 39 35 41 40 35 35 35 34 36 36 33 31 28 26 23 20 18 16 13 9 7 3 1 7 4 9 13 17 19 23 24 28 28 31 34 36 39
28 28 31 33 36 32 32 31 33 33 33 33 32 31 31 31 30 29 27 24 22 19 18 15 13 9 6 3 1 4 6 9 12 15 18 21 24 27 31 33 36 40 43 46
22 22 25 29 26 25 24 23 25 27 27 27 27 27 27 27 26 25 23 20 18 15 13 11 8 8 8 9 11 13 15 17 20 23 25 28 30 33 36 39 41 44 47 50
18 18 19 20 19 18 19 20 21 21 22 23 23 23 22 20 20 19 17 16 14 13 13 13 14 14 15 15 16 17 19 21 24 27 30 33 35 38 40 42 45 47 49 51
10 10 12 12 13 15 16 17 18 19 19 20 21 20 20 21 21 20 19 19 17 17 17 16 15 16 17 19 21 23 25 27 29 31 33 35 37 39 42 43 45 46 48 50
Wind_Direction
338 331 324 321 315 297 287 284 278 277 253 256 257 255 247 231 224 220 219 215 215 215 216 210 209 216 219 221 225 226 227 228 228 222 242 236 246 229 232 239 240 240 242 243
339 335 335 334 330 316 295 278 276 271 252 253 246 252 251 240 223 220 214 217 214 214 214 211 207 212 214 213 223 225 226 225 228 228 232 238 234 243 230 231 238 239 243 245
341 341 341 341 340 325 315 313 298 284 259 257 259 276 252 245 235 221 215 213 214 214 215 203 208 208 210 205 211 217 219 224 226 230 226 239 236 244 247 250 235 244 245 248
344 342 343 347 349 346 353 331 323 310 282 274 261 275 258 245 240 225 215 211 212 213 214 212 207 206 207 208 214 211 213 218 221 224 223 233 242 235 236 249 248 236 242 248
345 348 349 348 2 7 358 355 340 328 315 296 285 272 308 250 245 224 218 209 211 212 213 212 209 210 202 202 206 213 216 221 222 226 229 234 244 242 247 244 246 248 258 255
354 3 352 355 352 15 16 5 350 336 327 337 334 291 44 226 205 216 214 206 208 211 211 210 207 210 207 212 208 204 214 221 223 225 230 230 234 250 254 257 260 256 261 260
4 5 1 5 349 356 7 3 2 10 5 360 307 308 273 249 241 231 208 203 203 209 209 211 207 208 209 207 208 206 199 218 224 228 233 237 242 249 258 264 264 272 265 269
360 0 4 7 6 354 352 354 346 336 337 336 332 340 334 283 257 233 208 199 199 206 206 210 207 204 204 205 201 188 197 211 220 224 230 234 241 248 256 261 268 269 266 270
360 360 358 5 7 2 354 339 340 333 346 1 26 356 2 335 269 234 212 197 197 203 204 207 207 199 201 203 211 218 217 223 227 233 233 236 237 242 247 255 257 265 274 274
360 354 354 358 0 359 348 348 2 342 328 350 14 7 6 337 258 206 193 188 194 199 205 205 204 198 198 203 208 222 225 225 225 228 231 234 238 241 246 251 257 260 266 275
358 360 356 351 355 357 14 19 31 33 45 37 30 6 17 11 109 161 175 176 186 196 202 203 200 204 200 202 210 211 220 222 226 226 236 236 238 242 248 252 256 258 258 267
6 13 10 6 7 10 19 26 30 40 58 48 41 29 55 82 88 135 163 161 178 193 200 201 200 203 197 200 205 214 217 223 233 234 238 245 245 243 247 249 250 253 249 266
13 18 3 10 22 33 49 40 37 42 57 69 73 80 89 94 92 105 135 146 171 188 198 199 195 201 205 207 208 214 222 221 225 231 238 244 250 245 247 249 248 251 250 256
14 8 5 15 26 33 43 49 58 52 78 78 72 79 99 94 92 89 103 137 166 186 194 196 195 197 198 196 203 208 216 224 233 240 245 250 250 250 251 251 250 250 259 265
19 19 17 24 29 36 61 76 76 69 85 88 87 79 75 80 72 106 105 118 134 164 187 193 189 188 196 198 207 214 218 226 233 239 243 246 249 251 250 248 255 254 267 265
34 29 36 45 56 64 73 80 78 71 81 81 80 93 93 79 91 86 92 112 133 134 143 161 174 182 192 199 210 216 223 231 236 238 243 247 252 256 259 256 254 259 267 267
46 57 72 74 73 79 85 85 75 81 83 87 89 86 96 94 82 90 93 109 108 117 151 156 169 182 195 199 211 214 228 240 243 245 248 253 260 263 267 266 263 271 271 268
75 77 82 82 81 76 74 82 90 89 87 80 81 86 90 91 91 103 96 96 112 118 108 136 154 164 184 214 216 229 233 242 250 257 258 258 263 269 272 276 272 271 272 278
75 77 81 81 82 83 83 84 84 91 87 84 82 78 77 81 91 95 92 96 97 109 116 137 142 161 185 215 218 241 248 249 250 260 263 265 269 272 268 275 283 285 281 285
77 77 79 82 83 81 81 84 88 88 87 85 84 84 87 90 87 86 90 81 80 94 112 117 170 177 204 207 244 237 255 249 255 267 270 275 278 278 274 275 282 280 279 275
78 80 78 79 81 85 85 85 87 90 90 90 88 83 81 84 82 86 88 91 90 86 87 117 146 198 241 269 253 231 248 256 260 263 257 255 272 263 286 291 296 301 308 307
77 78 77 79 77 80 81 84 78 86 84 76 76 75 77 74 75 79 80 82 83 86 87 88 94 101 108 101 92 113 213 266 299 290 304 284 293 303 297 293 292 290 291 291
82 76 75 71 75 81 83 77 73 70 68 66 67 67 69 69 70 70 71 70 70 71 72 77 77 80 85 70 351 310 314 300 301 299 299 299 295 297 296 297 298 298 300 299
92 83 76 76 82 80 73 65 62 61 62 58 57 58 56 55 56 55 53 54 56 57 55 51 38 24 7 351 336 326 319 315 312 309 307 305 304 303 302 301 301 301 300 300
88 84 87 86 84 76 66 59 57 52 49 48 46 47 50 47 49 47 44 41 34 25 17 11 5 357 348 338 329 323 319 316 315 313 311 310 309 306 304 304 304 305 305 304
91 84 90 84 71 55 50 46 44 41 37 38 39 41 42 39 36 33 29 25 21 15 9 360 351 342 332 327 323 321 319 319 319 316 315 313 313 313 314 314 312 312 311 311
Height
5563 5552 5540 5529 5521 5515 5511 5508 5507 5511 5512 5506 5508 5507 5510 5517 5528 5543 5563 5575 5588 5601 5614 5628 5642 5652 5662 5673 5681 5689 5697 5704 5711 5717 5724 5729 5733 5735 5741 5746 5749 5752 5756 5757
5555 5542 5534 5523 5514 5507 5502 5498 5497 5499 5504 5497 5496 5496 5500 5503 5513 5528 5547 5561 5576 5588 5600 5616 5631 5642 5655 5667 5673 5680 5689 5698 5704 5711 5718 5721 5726 5729 5733 5738 5742 5746 5749 5751
5548 5538 5529 5518 5509 5501 5496 5492 5490 5490 5495 5491 5490 5489 5493 5498 5503 5515 5533 5551 5563 5578 5592 5608 5621 5635 5646 5657 5662 5670 5681 5691 5698 5705 5711 5714 5720 5724 5728 5732 5735 5739 5741 5743
5541 5534 5526 5517 5507 5499 5493 5490 5486 5485 5486 5487 5487 5478 5487 5490 5491 5499 5513 5532 5551 5566 5580 5596 5613 5624 5639 5648 5656 5663 5672 5682 5689 5697 5702 5707 5714 5717 5721 5724 5727 5728 5732 5734
5543 5530 5524 5515 5508 5499 5494 5489 5486 5483 5482 5481 5482 5478 5481 5485 5487 5490 5501 5522 5536 5551 5567 5583 5600 5614 5630 5639 5650 5660 5666 5675 5684 5692 5696 5702 5707 5711 5714 5718 5721 5723 5724 5724
5539 5529 5521 5515 5507 5501 5494 5489 5485 5481 5479 5478 5477 5475 5474 5476 5480 5482 5486 5503 5522 5537 5553 5570 5587 5603 5620 5632 5643 5652 5660 5668 5677 5684 5690 5696 5702 5704 5707 5710 5712 5714 5716 5717
5539 5529 5520 5513 5508 5502 5496 5491 5487 5483 5479 5476 5473 5472 5472 5469 5468 5468 5471 5486 5508 5526 5545 5563 5579 5598 5616 5628 5641 5647 5654 5662 5670 5678 5685 5689 5694 5697 5700 5703 5706 5707 5707 5709
5534 5527 5521 5514 5507 5502 5496 5491 5486 5479 5477 5474 5472 5469 5468 5464 5462 5462 5462 5475 5498 5516 5538 5556 5575 5593 5613 5623 5636 5640 5649 5658 5666 5670 5677 5682 5687 5691 5694 5697 5698 5699 5701 5701
5532 5528 5519 5514 5507 5502 5496 5492 5487 5478 5474 5472 5470 5467 5461 5456 5452 5451 5460 5470 5491 5513 5535 5551 5569 5587 5607 5619 5627 5634 5643 5652 5657 5665 5671 5676 5679 5684 5687 5689 5690 5692 5694 5694
5535 5527 5521 5515 5511 5505 5498 5491 5484 5479 5473 5469 5467 5463 5459 5453 5448 5449 5458 5472 5490 5511 5531 5548 5566 5582 5599 5614 5623 5632 5638 5648 5654 5659 5663 5668 5670 5675 5678 5679 5682 5684 5686 5686
5533 5527 5523 5516 5508 5499 5496 5489 5485 5480 5475 5470 5465 5464 5459 5455 5452 5453 5461 5472 5489 5509 5529 5546 5563 5577 5590 5606 5619 5626 5632 5640 5646 5652 5656 5660 5663 5667 5671 5673 5674 5676 5677 5675
5533 5528 5523 5518 5511 5504 5496 5492 5488 5485 5479 5473 5470 5468 5464 5461 5461 5465 5473 5481 5494 5513 5531 5548 5565 5580 5593 5605 5615 5622 5629 5637 5642 5647 5650 5654 5658 5662 5662 5663 5664 5666 5666 5666
5534 5529 5525 5518 5516 5509 5501 5496 5493 5489 5484 5478 5475 5474 5476 5473 5470 5475 5481 5488 5501 5517 5534 5551 5568 5579 5594 5605 5613 5620 5628 5636 5639 5642 5645 5647 5650 5653 5654 5654 5656 5657 5657 5654
5535 5532 5526 5519 5513 5507 5505 5502 5500 5497 5493 5487 5484 5481 5484 5487 5485 5487 5494 5501 5510 5524 5538 5553 5568 5582 5595 5605 5613 5618 5624 5629 5632 5635 5638 5640 5642 5643 5644 5646 5647 5648 5645 5641
5542 5539 5530 5525 5519 5515 5511 5511 5509 5506 5502 5501 5494 5500 5497 5501 5501 5503 5509 5514 5523 5532 5544 5557 5573 5586 5596 5603 5610 5616 5619 5624 5627 5629 5631 5632 5632 5634 5634 5635 5636 5637 5635 5634
5547 5543 5538 5533 5527 5523 5520 5519 5518 5516 5514 5513 5510 5510 5510 5516 5520 5526 5529 5531 5538 5543 5553 5565 5578 5588 5597 5604 5609 5614 5618 5620 5622 5623 5625 5625 5626 5627 5627 5627 5625 5624 5622 5622
5558 5552 5548 5543 5538 5534 5532 5530 5530 5527 5528 5528 5527 5525 5527 5532 5535 5539 5543 5547 5552 5559 5566 5573 5583 5590 5597 5602 5606 5610 5615 5616 5617 5619 5619 5620 5619 5619 5619 5618 5617 5614 5612 5610
5570 5564 5560 5555 5550 5544 5541 5541 5542 5541 5543 5543 5541 5541 5543 5546 5549 5553 5554 5558 5564 5570 5574 5581 5588 5594 5600 5602 5606 5607 5609 5611 5612 5613 5613 5613 5612 5612 5611 5610 5607 5604 5603 5598
5585 5578 5573 5569 5557 5557 5557 5557 5557 5555 5557 5556 5555 5555 5556 5556 5561 5564 5564 5567 5571 5574 5579 5584 5590 5594 5598 5601 5603 5603 5605 5606 5607 5607 5607 5606 5606 5604 5602 5600 5598 5595 5591 5585
5600 5594 5587 5581 5578 5574 5573 5570 5569 5569 5567 5571 5571 5571 5571 5571 5573 5571 5573 5575 5577 5581 5585 5589 5592 5595 5598 5600 5600 5601 5602 5602 5603 5602 5601 5600 5599 5598 5595 5592 5590 5587 5583 5579
5615 5610 5600 5595 5590 5589 5590 5590 5588 5588 5586 5585 5586 5585 5585 5586 5581 5580 5582 5584 5586 5588 5591 5593 5595 5597 5599 5599 5599 5599 5599 5600 5599 5599 5598 5596 5594 5592 5589 5586 5582 5577 5572 5569
5621 5617 5614 5606 5603 5603 5603 5603 5606 5597 5596 5596 5596 5595 5596 5594 5592 5592 5594 5595 5596 5598 5599 5599 5599 5600 5601 5601 5601 5600 5600 5598 5598 5596 5594 5592 5589 5585 5582 5578 5574 5570 5564 5559
5626 5625 5620 5617 5612 5613 5613 5613 5610 5607 5605 5605 5604 5604 5602 5601 5601 5600 5600 5601 5602 5602 5602 5603 5602 5602 5602 5601 5600 5599 5597 5595 5593 5591 5588 5584 5581 5578 5573 5568 5564 5559 5553 5548
5631 5628 5626 5624 5620 5619 5618 5617 5615 5613 5612 5611 5610 5608 5607 5606 5605 5605 5604 5604 5604 5604 5604 5603 5603 5601 5600 5599 5597 5596 5594 5591 5589 5585 5582 5578 5574 5570 5565 5559 5554 5548 5542 5536
5635 5633 5630 5627 5627 5626 5624 5621 5618 5617 5617 5615 5614 5612 5610 5610 5608 5607 5607 5606 5605 5604 5603 5602 5600 5599 5598 5596 5595 5592 5589 5585 5582 5579 5575 5571 5566 5561 5556 5550 5544 5537 5531 5524
5637 5636 5634 5632 5630 5628 5626 5625 5623 5621 5619 5617 5615 5613 5612 5610 5608 5607 5606 5605 5604 5603 5601 5600 5597 5595 5593 5590 5587 5584 5581 5577 5573 5569 5565 5561 5556 5551 5545 5539 5533 5526 5519 5511